Kicking Horse, Canada 16 day weather forecast

Slopes altitude range 1190 m - 2445m

Number of lifts: 5 Pistes: 70km

In some cases the lift and piste totals shown are for the ski domain (e.g. Three Valleys) rather than individual resort (e.g. Courchevel)

Overview

The 16 day weather forecast is fully updated 4 times every day.

    • Mon 22 APR 2019
    • Mon 22
    • -2C -1C
    • Tue 23 APR 2019
    • Tue 23
    • 0C 2C
    • Wed 24 APR 2019
    • Wed 24
    • -1C 2C
    • Thu 25 APR 2019
    • Thu 25
    • -2C -1C
    • Fri 26 APR 2019
    • Fri 26
    • 1C 3C
    • Sat 27 APR 2019
    • Sat 27
    • -2C -1C
    • Sun 28 APR 2019
    • Sun 28
    • -3C -1C
    • Mon 29 APR 2019
    • Mon 29
    • -3C -2C
    • Tue 30 APR 2019
    • Tue 30
    • -12C -10C
    • Wed 01 MAY 2019
    • Wed 01
    • -11C -10C
    • Thu 02 MAY 2019
    • Thu 02
    • -6C -1C
    • Fri 03 MAY 2019
    • Fri 03
    • -6C 1C
    • Sat 04 MAY 2019
    • Sat 04
    • -5C 1C
    • Sun 05 MAY 2019
    • Sun 05
    • -8C -3C
    • Mon 06 MAY 2019
    • Mon 06
    • -8C 0C
    • Tue 07 MAY 2019
    • Tue 07
    • -5C 2C

Date:

Time Type 0°C level Temp Chill Snow Cloud Speed Gust Dir Press
3:00 2160m 1°C 1_2 0cm 50% 2mph 2mph 1020mB
6:00 1697m -1°C -1_3 0cm 40% 3mph 3mph 1023mB
9:00 1292m -2°C -2_3 0cm 27% 3mph 4mph 1024mB
12:00 1221m -1°C -1_4 0cm 45% 4mph 5mph 1023mB
15:00 2150m 2°C 2_3 0cm 64% 3mph 4mph 1020mB
18:00 2265m 8°C 8_5 0cm 65% 5mph 8mph 1015mB
21:00 2348m 8°C 8_7 0cm 78% 7mph 13mph 1013mB
0:00 2361m 8°C 8_5 0cm 62% 5mph 10mph 1012mB
3:00 2385m 4°C 4_3 0cm 87% 3mph 4mph 1013mB
6:00 2334m 2°C 2_3 0cm 60% 3mph 3mph 1015mB
9:00 2218m 1°C 1_3 0cm 26% 3mph 3mph 1015mB
12:00 1802m 2°C 2_2 0cm 31% 2mph 2mph 1016mB
15:00 2099m 5°C 5_3 0cm 33% 3mph 5mph 1015mB
18:00 2195m 8°C 8_6 0cm 37% 6mph 11mph 1013mB
21:00 2289m 8°C 8_7 0cm 61% 7mph 13mph 1012mB
0:00 2244m 7°C 7_5 0cm 71% 5mph 8mph 1012mB
3:00 2129m 3°C 3_3 1cm 85% 3mph 4mph 1014mB
6:00 1944m 2°C 2_3 1cm 92% 3mph 4mph 1016mB
9:00 1865m 2°C 2_3 3cm 100% 3mph 5mph 1017mB
12:00 1607m 2°C 2_2 3cm 86% 2mph 2mph 1019mB
15:00 1787m 3°C 3_3 0cm 26% 3mph 4mph 1020mB
18:00 1968m 6°C 6_6 1cm 21% 6mph 11mph 1018mB
21:00 2082m 6°C 6_7 1cm 17% 7mph 14mph 1018mB
0:00 2120m 6°C 6_7 0cm 11% 7mph 13mph 1016mB
3:00 1979m 1°C 1_4 0cm 0% 4mph 5mph 1019mB
6:00 1547m -1°C -1_2 0cm 0% 2mph 3mph 1022mB
9:00 1210m -2°C -2_2 0cm 5% 2mph 2mph 1022mB
12:00 1192m -1°C -1_3 0cm 3% 3mph 3mph 1023mB
15:00 1748m 3°C 3_2 0cm 34% 2mph 2mph 1021mB
18:00 2026m 9°C 9_2 0cm 22% 2mph 4mph 1018mB
21:00 2217m 9°C 9_3 0cm 32% 3mph 7mph 1016mB
0:00 2297m 8°C 8_2 0cm 53% 2mph 4mph 1015mB
3:00 2281m 4°C 4_3 0cm 84% 3mph 4mph 1017mB
6:00 2175m 3°C 3_3 0cm 89% 3mph 4mph 1018mB
9:00 1967m 2°C 2_3 1cm 93% 3mph 3mph 1017mB
12:00 1808m 3°C 3_1 1cm 93% 1mph 1mph 1017mB
15:00 1785m 3°C 3_1 1cm 97% 1mph 2mph 1017mB
18:00 1800m 4°C 4_6 2cm 98% 6mph 7mph 1016mB
21:00 1761m 3°C 3_5 1cm 96% 5mph 7mph 1016mB
0:00 1820m 3°C 3_3 1cm 95% 3mph 5mph 1016mB
3:00 1575m 0°C 0_2 2cm 99% 2mph 3mph 1017mB
6:00 1419m -1°C -1_2 4cm 99% 2mph 3mph 1019mB
9:00 1300m -2°C -2_3 1cm 98% 3mph 3mph 1019mB
12:00 1250m -1°C -1_5 2cm 98% 5mph 7mph 1019mB
15:00 1590m 1°C 1_3 1cm 88% 3mph 5mph 1017mB
18:00 1735m 3°C 3_5 1cm 61% 5mph 10mph 1015mB
21:00 1719m 3°C 3_4 1cm 71% 4mph 5mph 1014mB
0:00 1694m 2°C 2_4 2cm 83% 4mph 4mph 1014mB
3:00 1464m -1°C -1_2 1cm 90% 2mph 3mph 1016mB
6:00 1292m -2°C -2_1 1cm 92% 1mph 2mph 1017mB
9:00 1284m -2°C -2_1 1cm 98% 1mph 1mph 1016mB
12:00 1053m -1°C -1_1 1cm 93% 1mph 1mph 1016mB
15:00 1547m 1°C 1_1 1cm 27% 1mph 2mph 1013mB
18:00 1654m 4°C 4_3 4cm 41% 3mph 5mph 1011mB
21:00 1738m 4°C 4_3 3cm 83% 3mph 3mph 1009mB
0:00 1726m 2°C 2_7 6cm 83% 7mph 8mph 1008mB
3:00 1463m -1°C -1_5 1cm 90% 5mph 6mph 1008mB
6:00 1195m -2°C -2_6 1cm 89% 6mph 10mph 1009mB
9:00 1113m -3°C -3_5 1cm 100% 5mph 8mph 1008mB
12:00 1115m -2°C -2_4 2cm 99% 4mph 7mph 1009mB
15:00 1066m -7°C -7_11 1cm 100% 11mph 18mph 1011mB
18:00 1237m -6°C -6_11 2cm 100% 11mph 17mph 1011mB
21:00 1291m -6°C -6_10 1cm 100% 10mph 13mph 1011mB
0:00 1265m -6°C -6_8 1cm 100% 8mph 11mph 1011mB
3:00 931m -8°C -8_6 1cm 100% 6mph 7mph 1013mB
6:00 652m -10°C -10_6 1cm 100% 6mph 6mph 1014mB
9:00 450m -11°C -11_5 1cm 98% 5mph 5mph 1015mB
12:00 254m -10°C -10_3 1cm 94% 3mph 4mph 1016mB
15:00 931m -8°C -8_1 0cm 76% 1mph 2mph 1014mB
18:00 1393m -5°C -5_6 0cm 77% 6mph 6mph 1011mB
21:00 1662m -5°C -5_7 1cm 95% 7mph 7mph 1010mB
0:00 1804m -5°C -5_6 1cm 88% 6mph 6mph 1010mB
3:00 1092m -7°C -7_4 0cm 14% 4mph 4mph 1012mB
6:00 645m -10°C -10_1 0cm 8% 1mph 2mph 1015mB
9:00 518m -11°C -11_1 0cm 42% 1mph 2mph 1016mB
12:00 493m -10°C -10_1 0cm 61% 1mph 2mph 1017mB
15:00 1277m -6°C -6_3 0cm 68% 3mph 3mph 1016mB
18:00 1722m -3°C -3_6 0cm 74% 6mph 6mph 1015mB
21:00 1926m -3°C -3_7 3cm 92% 7mph 8mph 1013mB
0:00 2010m -3°C -3_7 4cm 93% 7mph 8mph 1012mB
Afternoon 0.0208333mm 0.125 1226m -1°C -1_9 0cm 66% 9mph 12mph 1016mB
Morning 0.0989583mm 0.75 2159m -6°C -6_10 6cm 81% 10mph 12mph 1008mB
Afternoon 0mm 0 1231m 1°C 1_5 0cm 30% 5mph 7mph 1014mB
Morning 0.0833333mm 0.75 2159m -6°C -6_4 6cm 80% 4mph 5mph 1011mB
Afternoon 0.21875mm 0.4375 1398m 1°C 1_1 4cm 99% 1mph 2mph 1017mB
Morning 0.505208mm 0.5625 1639m -5°C -5_10 4cm 100% 10mph 11mph 1017mB
Afternoon 0.166667mm 0.0625 886m -3°C -3_8 1cm 99% 8mph 10mph 1027mB
Morning 0.00520833mm 0.0625 2050m -9°C -9_5 0cm 40% 5mph 6mph 1020mB
Afternoon 0mm 0 970m 0°C 0_5 0cm 1% 5mph 6mph 1025mB
Morning 0mm 0 2295m -8°C -8_10 0cm 32% 10mph 11mph 1014mB
Afternoon 0mm 0 1410m 2°C 2_5 0cm 9% 5mph 6mph 1019mB
Morning 0.0260417mm 0.25 2460m -5°C -5_10 0cm 60% 10mph 12mph 1011mB

16 day outlook at a glance

Forecast issued: 22/04/2019 08:27:04

Chat

Your comments and questions. In a resort? Let us know what it's like!


Characters left 250

For terms and conditions see Readers Comments on the Cookie and privacy policy page.